Regional Weather Roundup
Issued by NWS

Home | Current Version | Previous Version | Text Only | Print | Product List | Glossary Off
Versions: 1 2 3 4 5 6 7 8 9 10 11 12 13 14 15 16 17 18 19 20 21 22 23 24 25 26 27 28 29 30 31 32 33 34 35 36 37 38 39 40 41 42 43 44 45 46 47 48 49 50

000
ASUS43 KLOT 122203
RWRIL

ILLINOIS REGIONAL WEATHER ROUNDUP
NATIONAL WEATHER SERVICE CHICAGO/ROMEOVILLE IL
400 PM CST TUE DEC 12 2017

NOTE: "FAIR" INDICATES FEW OR NO CLOUDS BELOW 12,000 FEET WITH NO
SIGNIFICANT WEATHER AND/OR OBSTRUCTIONS TO VISIBILITY.

* THESE STATIONS ARE NOT UNDER NWS QUALITY CONTROL. THEY ALSO MAY NOT
  REPORT WEATHER SUCH AS PRECIPITATION OR FOG.

ILZ001-002-007-009-015-016-024-122300-
NORTHWEST ILLINOIS

CITY           SKY/WX    TMP DP  RH WIND       PRES   REMARKS
MOLINE         CLEAR     28   3  34 W10       30.10S WCI  19
STERLING*      CLOUDY    23  11  60 NW10      30.07F WCI  12
SAVANNA*       CLOUDY    23  10  57 NW8       30.08F WCI  13
$$

ILZ003-004-008-010-011-017-018-122300-
NORTH CENTRAL ILLINOIS

CITY           SKY/WX    TMP DP  RH WIND       PRES   REMARKS
ROCKFORD       CLOUDY    20   9  62 W8        30.05F WCI  10
FREEPORT*      CLOUDY    20   8  59 W10       30.07R WCI   8
ROCHELLE*      CLOUDY    19  11  70 W13       30.06F WCI   6
DE KALB*       MOCLDY    18   9  69 W10       30.03F WCI   6
PERU*          CLOUDY    23  10  56 NW14      30.08F WCI  11
$$

ILZ005-006-012>014-019>023-122300-
NORTHEAST ILLINOIS

CITY           SKY/WX    TMP DP  RH WIND       PRES   REMARKS
CHICAGO-OHARE  PTCLDY    20   8  60 W10       30.02F WCI   9
CHICAGO-MIDWAY PTCLDY    22   8  55 NW16      30.04S WCI   8
AURORA         CLOUDY    19  10  68 W14       30.05F WCI   6
LANSING*       CLEAR     21  10  60 W9        30.04S WCI  11
JOLIET*        CLOUDY    22  10  59 NW5       30.07S WCI  16
WAUKEGAN       CLEAR     19   2  47 NW9       30.01S WCI   8
DUPAGE AIRPORT PTCLDY    18   9  68 W10       30.03F WCI   6
KANKAKEE*      PTCLDY    22   8  55 NW10      30.07R WCI  11
WHEELING       CLEAR     22   7  52 W10       30.04S WCI  11
MORRIS*        CLOUDY    20   8  58 NW13      30.06F WCI   8
ROMEOVILLE*    MOCLDY    19  10  67 NW13      30.05S WCI   6
NORTHERLY ISL    N/A     22   8  55 W12         N/A  WCI  11
$$

LMZ740>746-122300-
SOUTHERN LAKE MICHIGAN

STATION/POSITION SKY/WX   TEMP    WIND        PRES    VSBY  WAVE
                          AIR SEA DIR/SP/G                  HT/PER
                          (F)     (DEG/KT/KT) (MB)    (MI)  (FT/S)
HARRISON CRIB              22     290/ 16/ 17   N/A
BURNHAM HARBOR             22     280/ 11/ 15   N/A
CALUMET HARBOR             21     290/  9/ 17 1016.3S
BURNS HARBOR               23     300/ 16/ 20 1016.9S
MICHIGAN CITY              22     280/ 21/ 25   N/A
$$

ILZ025>027-034>036-040-047-049-050-058-095>099-122300-
WEST-CENTRAL ILLINOIS

CITY           SKY/WX    TMP DP  RH WIND       PRES   REMARKS
QUINCY         CLEAR     31   1  28 W12       30.12F WCI  22
GALESBURG*     CLEAR     28   8  42 W12       30.10F WCI  18
MACOMB*        CLEAR     29   4  33 W9        30.13F WCI  21
JACKSONVILLE*  CLEAR     31   0  27 W10       30.13S WCI  22
PITTSFIELD*    CLEAR     32   1  26 W8        30.14S WCI  25
$$

ILZ028>032-037-038-041>044-048-051>054-059>061-122300-
CENTRAL ILLINOIS

CITY           SKY/WX    TMP DP  RH WIND       PRES   REMARKS
PONTIAC        CLOUDY    24   4  41 NW10      30.08S WCI  14
BLOOMINGTON    MOCLDY    27   5  39 W17       30.06F WCI  14
DECATUR        CLEAR     28   6  39 NW10      30.10R WCI  19
PEORIA         CLEAR     28   2  32 W7        30.10F WCI  21
LACON*         PTCLDY    26   3  36 NW9       30.08S WCI  17
LINCOLN*       CLEAR     29   6  36 NW5       30.10F WCI  24
SPRINGFIELD    CLEAR     30   3  31 W10       30.12F WCI  21
TAYLORVILLE    CLEAR     29   3  32 W12       30.11F WCI  20
$$

ILZ033-039-045-046-055>057-062-063-122300-
EAST-CENTRAL ILLINOIS

CITY           SKY/WX    TMP DP  RH WIND       PRES   REMARKS
CHAMPAIGN      CLEAR     28   3  34 NW15      30.07S WCI  16
DANVILLE*      PTCLDY    24   6  46 NW10      30.03S WCI  13
RANTOUL*       CLEAR     29   4  35 NW15      30.06F WCI  17
MATTOON        CLEAR     28   4  35 NW16      30.07F WCI  16
PARIS*         CLEAR     27   7  42 NW14G21   30.07F WCI  16
$$

ILZ079-100>102-122300-
SOUTHWEST ILLINOIS

CITY           SKY/WX    TMP DP  RH WIND       PRES   REMARKS
ALTON          PTCLDY    32  23  69 NW14      30.14F WCI  22
BELLEVILLE     CLEAR     35   0  22 NW9       30.13F WCI  27
CAHOKIA*       CLEAR     36   0  21 NW10      30.15F WCI  28
SPARTA*        CLEAR     34   9  34 NW9       30.16S WCI  27
$$

ILZ064>066-069>071-074>076-080>082-084>086-088>090-092>094-122300-
SOUTH-CENTRAL ILLINOIS

CITY           SKY/WX    TMP DP  RH WIND       PRES   REMARKS
CARBONDALE     CLEAR     35   5  28 NW12      30.15R WCI  27
CAIRO*         CLEAR     38  10  31 NW12      30.15S WCI  31
EFFINGHAM*     CLEAR     31   6  35 W13       30.13R WCI  21
MARION         PTCLDY    36   7  30 NW12G18   30.15R WCI  27
MT. VERNON     CLEAR     33   6  32 VRB6      30.14R WCI  28
CENTRALIA*     CLEAR     33   7  33 NW13      30.13S WCI  24
SALEM*         CLEAR     34   4  28 NW9       30.13R WCI  26
METROPOLIS*    CLEAR     37  10  32 NW8       30.14R WCI  31
$$

ILZ067-068-072-073-078-083-087-091-122300-
SOUTHEAST ILLINOIS

CITY           SKY/WX    TMP DP  RH WIND       PRES   REMARKS
LAWRENCEVILLE  CLEAR     31   8  38 NW16G23   30.10S WCI  20
FLORA*         CLEAR     33   8  35 NW14G20   30.12S WCI  23
HARRISBURG*    CLEAR     34  10  36 NW16G22   30.14S WCI  24
ROBINSON*      CLEAR     29   5  35 NW14G20   30.11R WCI  18
CARMI*         CLEAR     33   9  37 NW10G16   30.12S WCI  24
$$

ABBREVIATIONS USED IN REMARKS
   TC - TEMPERATURE IN CELSIUS
  WCI - WIND CHILL INDEX
   HX - HEAT INDEX
  VSB - VISIBILITY
$$





USA.gov is the U.S. government's official web portal to all federal, state and local government web resources and services.